Location: Unspecified
(0.0000°N, 0.0000°E)
Time: 23:44:26
(UTC+00:00)

Vanguard 2 Rocket - Pass Details

Date: 16 December 2018
Orbit: 554 x 3327 km, 32.9° (Epoch: 18 January)

Event Time Altitude Azimuth Distance (km) Brightness Sun altitude
Rises 19:22:07 0° 237° (WSW) 7,093 13.0 -19.7°
Reaches altitude 10° 19:29:50 10° 220° (SW) 6,265 12.1 -21.5°
Maximum altitude 19:41:50 18° 183° (S) 5,503 11.1 -24.2°
Drops below altitude 10° 19:52:47 10° 146° (SE) 5,687 10.8 -26.7°
Sets 19:59:10 0° 128° (SE) 6,239 10.9 -28.1°
